This is the latest recevied weather packets stored in our database for station/object W4CKA. If no packets are shown the sender has not sent any weather packets the latest 10 day(s).
| Time | Temp. | Humidity | Pressure | Rain* | Wind** | Luminosity | Snow |
|---|---|---|---|---|---|---|---|
| 1778010659 | 24.44° C | 49% | 1054.5 hPa | 0 mm | - | 525 W/m² | - |
| 1778010058 | 24.44° C | 48% | 1054.8 hPa | 0 mm | - | 658 W/m² | - |
| 1778009458 | 23.89° C | 50% | 1055 hPa | 0 mm | - | 483 W/m² | - |
| 1778008854 | 22.78° C | 52% | 1055.1 hPa | 0 mm | - | 300 W/m² | - |
| 1778008249 | 22.78° C | 51% | 1055.3 hPa | 0 mm | - | 254 W/m² | - |
| 1778007646 | 23.33° C | 50% | 1055.2 hPa | 0 mm | - | 415 W/m² | - |
| 1778007045 | 23.33° C | 54% | 1055.7 hPa | 0 mm | - | 389 W/m² | - |
| 1778006445 | 23.33° C | 51% | 1055.7 hPa | 0 mm | - | 363 W/m² | - |
| 1778005845 | 22.78° C | 51% | 1056 hPa | 0 mm | - | 349 W/m² | - |
| 1778005243 | 23.89° C | 49% | 1056.2 hPa | 0 mm | - | 356 W/m² | - |
| 1778004644 | 22.78° C | 50% | 1056.1 hPa | 0 mm | - | 515 W/m² | - |
| 1778004043 | 22.78° C | 48% | 1056.3 hPa | 0 mm | - | 401 W/m² | - |
| 1778003440 | 22.78° C | 50% | 1056.3 hPa | 0 mm | - | 460 W/m² | - |
| 1778002839 | 23.33° C | 50% | 1056.5 hPa | 0 mm | - | 488 W/m² | - |
| 1778002239 | 23.89° C | 50% | 1056.7 hPa | 0 mm | - | 548 W/m² | - |
| 1778001638 | 22.78° C | 55% | 1057 hPa | 0 mm | - | 577 W/m² | - |
| 1778001036 | 22.78° C | 54% | 1057 hPa | 0 mm | - | 376 W/m² | - |
| 1778000435 | 22.22° C | 51% | 1057.1 hPa | 0 mm | - | 560 W/m² | - |
| 1777999832 | 23.33° C | 51% | 1057 hPa | 0 mm | - | 300 W/m² | - |
| 1777999232 | 22.78° C | 56% | 1057.1 hPa | 0 mm | - | 566 W/m² | - |
| 1777998627 | 22.78° C | 55% | 1057.1 hPa | 0 mm | - | 657 W/m² | - |
| 1777998023 | 22.78° C | 52% | 1057.1 hPa | 0 mm | - | 645 W/m² | - |
| 1777997423 | 22.22° C | 51% | 1057.2 hPa | 0 mm | - | 378 W/m² | - |
| 1777996818 | 21.67° C | 54% | 1057.2 hPa | 0 mm | - | 445 W/m² | - |
| 1777996216 | 21.67° C | 58% | 1057.5 hPa | 0 mm | - | 389 W/m² | - |
* Rain latest hour (hover to see other rain measurements)
** Current wind speed in m/s (hover to see current wind gust speed)